Rivas, Nicaragua

7:25 AM CST on February 07, 2016 (GMT -0600)
Rivas | | Change Station
CLOSE
Current Station
Airport
Location: Rivas,
Elevation: 174 ft
Nearby Weather Stations

Elev 174 ft 11.43 °N, 85.84 °W | Updated 25 minutes ago

Clear
Clear
77 °F
Feels Like 77 °F
N
9
Wind Variable Wind from East

Today
High -- | Low -- °F
--% Chance of Precip.
Yesterday
High -- | Low -- °F
Precip. -- in
Pressure 29.92 in
Visibility -9999.0 miles
Clouds
Dew Point 68 °F
Humidity 74%
Rainfall 0.00 in
Snow Depth Not available.
6:06 AM 5:48 PM
Waning Crescent, 2% visible
METAR MNRS 071300Z 10008KT CAVOK 25/20 Q1013
Pressure 29.92 in
Visibility -9999.0 miles
Clouds
Dew Point 68 °F
Humidity 74%
Rainfall 0.00 in
Snow Depth Not available.
6:06 AM 5:48 PM
Waning Crescent, 2% visible
METAR MNRS 071300Z 10008KT CAVOK 25/20 Q1013

10-Day Weather Forecast

No radar image for this location.
×

Almanac

Astronomy

Feb. 07, 2016 Rise Set
Actual Time
Civil Twilight
Nautical Twilight
Astronomical Twilight
Moon
Length of Visible Light
Length of Day
Tomorrow will be .
, % of the Moon is Illuminated

Today's Extremes

Country Highs Country Lows

Community

WunderPhotos

Upload Photos

1,891,190 photos uploaded!

WunderBlog® & News

Nearby

Air Quality

  Air Quality AQ Index Pollutant
Not available.

Snow Depth

Station Depth Elevation

Earthquake Activity

City Distance Mag. Time & Date
Minimum magnitude displayed is 2.5.

Coastal Water Temperatures

Place Temperature

Stations

Nearby Weather Stations

Station Location Temp. Windchill Dew Point Humidity Wind Precip. Elev Updated Type